Location: De Har
(53.3413°N, 6.6858°E)
Time: 08:32:27
(UTC+00:00)

Cosmos 1898 Rocket - Pass Details

Date: 22 April 2026
Orbit: 750 x 778 km, 74.0° (Epoch: 15 May)

Event Time Altitude Azimuth Distance (km) Brightness Sun altitude
Rises 02:20:36 0° 334° (NNW) 3,214 7.0 -15.3°
Reaches altitude 10° 02:23:00 10° 337° (NNW) 2,284 6.3 -15.0°
Maximum altitude 02:28:09 66° 61° (ENE) 821 3.9 -14.5°
Drops below altitude 10° 02:33:17 10° 143° (SE) 2,272 5.9 -13.9°
Sets 02:35:39 0° 147° (SSE) 3,195 6.6 -13.7°
